TimePST,TemperatureF,Dew PointF,Humidity,Sea Level PressureIn,VisibilityMPH,Wind Direction,Wind SpeedMPH,Gust SpeedMPH,PrecipitationIn,Events,Conditions,WindDirDegrees,DateUTC
12:20 AM,28.4,23.0,80,30.25,10.0,SW,5.8,-,N/A,,Clear,220,2013-11-27 08:20:00
12:40 AM,28.4,23.0,80,30.24,10.0,SSW,8.1,-,N/A,,Clear,210,2013-11-27 08:40:00
1:00 AM,28.4,23.0,80,30.24,10.0,WSW,6.9,-,N/A,,Clear,240,2013-11-27 09:00:00
1:20 AM,30.2,23.0,75,30.24,10.0,WSW,5.8,-,N/A,,Clear,240,2013-11-27 09:20:00
1:40 AM,30.2,23.0,75,30.24,10.0,SW,4.6,-,N/A,,Clear,230,2013-11-27 09:40:00
2:00 AM,32.0,23.0,69,30.24,10.0,South,6.9,-,N/A,,Clear,190,2013-11-27 10:00:00
2:20 AM,30.2,23.0,75,30.24,10.0,SW,5.8,-,N/A,,Clear,220,2013-11-27 10:20:00
2:40 AM,32.0,23.0,69,30.23,10.0,South,5.8,-,N/A,,Clear,190,2013-11-27 10:40:00
3:00 AM,32.0,23.0,69,30.22,10.0,South,5.8,-,N/A,,Clear,190,2013-11-27 11:00:00
3:20 AM,30.2,23.0,75,30.21,10.0,SSW,5.8,-,N/A,,Clear,210,2013-11-27 11:20:00
3:40 AM,32.0,23.0,69,30.21,10.0,South,6.9,-,N/A,,Clear,190,2013-11-27 11:40:00
4:00 AM,28.4,23.0,80,30.21,10.0,SW,9.2,-,N/A,,Clear,220,2013-11-27 12:00:00
4:20 AM,28.4,23.0,80,30.20,10.0,SW,6.9,-,N/A,,Clear,230,2013-11-27 12:20:00
4:40 AM,28.4,23.0,80,30.20,10.0,SW,4.6,-,N/A,,Clear,230,2013-11-27 12:40:00
5:00 AM,26.6,21.2,80,30.19,10.0,SSW,3.5,-,N/A,,Clear,200,2013-11-27 13:00:00
5:20 AM,26.6,21.2,80,30.19,10.0,SW,4.6,-,N/A,,Clear,220,2013-11-27 13:20:00
5:40 AM,24.8,19.4,80,30.19,10.0,SSW,6.9,-,N/A,,Clear,210,2013-11-27 13:40:00
6:00 AM,24.8,19.4,80,30.19,10.0,SW,5.8,-,N/A,,Clear,230,2013-11-27 14:00:00
6:20 AM,26.6,21.2,80,30.18,10.0,SW,6.9,-,N/A,,Clear,220,2013-11-27 14:20:00
6:40 AM,26.6,21.2,80,30.19,10.0,SSW,6.9,-,N/A,,Clear,210,2013-11-27 14:40:00
7:00 AM,26.6,21.2,80,30.18,10.0,SSW,6.9,-,N/A,,Clear,200,2013-11-27 15:00:00
7:20 AM,26.6,23.0,86,30.18,10.0,SW,8.1,-,N/A,,Clear,220,2013-11-27 15:20:00
7:40 AM,32.0,23.0,69,30.19,10.0,SW,6.9,-,N/A,,Clear,220,2013-11-27 15:40:00
8:00 AM,32.0,24.8,75,30.19,10.0,SW,3.5,-,N/A,,Clear,230,2013-11-27 16:00:00
8:20 AM,32.0,23.0,69,30.19,10.0,West,5.8,-,N/A,,Clear,260,2013-11-27 16:20:00
8:35 AM,32.0,24.8,75,30.19,10.0,Calm,Calm,-,N/A,,Clear,0,2013-11-27 16:35:00
9:00 AM,35.6,24.8,65,30.18,10.0,Calm,Calm,-,N/A,,Clear,0,2013-11-27 17:00:00
9:20 AM,41.0,24.8,53,30.17,10.0,Calm,Calm,-,N/A,,Clear,0,2013-11-27 17:20:00
9:40 AM,44.6,24.8,46,30.17,10.0,South,5.8,-,N/A,,Clear,180,2013-11-27 17:40:00
10:00 AM,42.8,26.6,53,30.17,10.0,SSW,5.8,-,N/A,,Clear,200,2013-11-27 18:00:00
10:20 AM,44.6,24.8,46,30.16,10.0,South,5.8,-,N/A,,Clear,190,2013-11-27 18:20:00
10:40 AM,46.4,24.8,43,30.15,10.0,SE,9.2,-,N/A,,Clear,140,2013-11-27 18:40:00
11:00 AM,48.2,24.8,40,30.14,10.0,SSE,11.5,-,N/A,,Clear,160,2013-11-27 19:00:00
11:20 AM,50.0,24.8,37,30.13,10.0,SSE,8.1,-,N/A,,Clear,160,2013-11-27 19:20:00
11:40 AM,50.0,24.8,37,30.12,10.0,SE,15.0,-,N/A,,Clear,140,2013-11-27 19:40:00
11:55 AM,50.0,24.8,37,30.12,10.0,SSE,11.5,-,N/A,,Clear,150,2013-11-27 19:55:00
12:20 PM,50.0,24.8,37,30.11,10.0,SSE,11.5,-,N/A,,Clear,160,2013-11-27 20:20:00
12:40 PM,48.2,24.8,40,30.10,10.0,SSE,12.7,-,N/A,,Clear,160,2013-11-27 20:40:00
1:00 PM,50.0,24.8,37,30.10,10.0,SSE,11.5,-,N/A,,Clear,160,2013-11-27 21:00:00
1:20 PM,50.0,23.0,35,30.09,10.0,South,11.5,-,N/A,,Clear,170,2013-11-27 21:20:00
1:40 PM,50.0,23.0,35,30.08,10.0,SSE,10.4,-,N/A,,Clear,160,2013-11-27 21:40:00
2:00 PM,50.0,24.8,37,30.07,10.0,SSE,11.5,-,N/A,,Clear,160,2013-11-27 22:00:00
2:20 PM,48.2,24.8,40,30.07,10.0,SSE,11.5,-,N/A,,Clear,160,2013-11-27 22:20:00
2:40 PM,46.4,26.6,46,30.07,10.0,SSE,10.4,-,N/A,,Clear,150,2013-11-27 22:40:00
3:00 PM,46.4,24.8,43,30.06,10.0,SSE,8.1,-,N/A,,Clear,160,2013-11-27 23:00:00
3:15 PM,46.4,26.6,46,30.07,10.0,South,8.1,-,N/A,,Clear,170,2013-11-27 23:15:00
3:40 PM,44.6,26.6,49,30.06,10.0,Calm,Calm,-,N/A,,Clear,0,2013-11-27 23:40:00
4:00 PM,42.8,26.6,53,30.07,10.0,SSE,6.9,-,N/A,,Clear,150,2013-11-28 00:00:00
4:15 PM,42.8,26.6,53,30.07,10.0,ESE,6.9,-,N/A,,Clear,120,2013-11-28 00:15:00
4:40 PM,41.0,26.6,57,30.07,10.0,SSE,8.1,-,N/A,,Clear,160,2013-11-28 00:40:00
5:00 PM,41.0,26.6,57,30.07,10.0,SSE,10.4,-,N/A,,Clear,160,2013-11-28 01:00:00
5:20 PM,39.2,26.6,61,30.07,10.0,SE,11.5,-,N/A,,Clear,130,2013-11-28 01:20:00
5:40 PM,39.2,26.6,61,30.08,10.0,SSE,10.4,-,N/A,,Clear,150,2013-11-28 01:40:00
6:00 PM,39.2,24.8,56,30.08,10.0,SE,10.4,-,N/A,,Clear,140,2013-11-28 02:00:00
6:20 PM,39.2,26.6,61,30.08,10.0,SE,10.4,-,N/A,,Clear,140,2013-11-28 02:20:00
6:40 PM,41.0,23.0,49,30.08,10.0,SE,10.4,-,N/A,,Clear,140,2013-11-28 02:40:00
7:00 PM,39.2,24.8,56,30.08,10.0,South,8.1,-,N/A,,Clear,170,2013-11-28 03:00:00
7:20 PM,39.2,24.8,56,30.08,10.0,South,10.4,-,N/A,,Clear,170,2013-11-28 03:20:00
7:40 PM,37.4,23.0,56,30.08,10.0,South,9.2,-,N/A,,Clear,190,2013-11-28 03:40:00
8:00 PM,37.4,23.0,56,30.08,10.0,SE,11.5,-,N/A,,Clear,140,2013-11-28 04:00:00
8:20 PM,39.2,24.8,56,30.08,10.0,South,8.1,-,N/A,,Clear,170,2013-11-28 04:20:00
8:40 PM,35.6,24.8,65,30.09,10.0,SSE,4.6,-,N/A,,Partly Cloudy,160,2013-11-28 04:40:00
9:00 PM,37.4,24.8,60,30.09,10.0,ESE,10.4,-,N/A,,Clear,120,2013-11-28 05:00:00
9:20 PM,37.4,23.0,56,30.09,10.0,SE,6.9,-,N/A,,Clear,130,2013-11-28 05:20:00
9:40 PM,37.4,24.8,60,30.09,10.0,SSE,8.1,-,N/A,,Clear,150,2013-11-28 05:40:00
10:00 PM,37.4,23.0,56,30.09,10.0,SSE,9.2,-,N/A,,Clear,150,2013-11-28 06:00:00
10:20 PM,39.2,23.0,52,30.09,10.0,ESE,5.8,-,N/A,,Clear,110,2013-11-28 06:20:00
10:40 PM,37.4,24.8,60,30.10,10.0,Calm,Calm,-,N/A,,Clear,0,2013-11-28 06:40:00
11:00 PM,37.4,23.0,56,30.09,10.0,SE,6.9,-,N/A,,Clear,140,2013-11-28 07:00:00
11:20 PM,39.2,23.0,52,30.09,10.0,SE,12.7,-,N/A,,Clear,130,2013-11-28 07:20:00
11:40 PM,37.4,23.0,56,30.09,10.0,SSE,5.8,-,N/A,,Clear,160,2013-11-28 07:40:00